User: anonymous   Login
Location: Nians�bougou
(13.2321°N, 4.9818°W)
Time: 18:08:53
(UTC+00:00)
Language:

Cosmos 1954 Rocket - Orbit

View from above orbital plane
View from above orbital plane
View from above satellite
View from above satellite

Ground track
Ground track

The orbit data is extracted from the following two-line orbital elements,

1 19257U 88053B   20151.69193303 +.00000022 +00000-0 +15948-4 0  9996
2 19257 074.0503 033.6455 0020102 014.6341 043.5838 14.37468031673458
Epoch (UTC): 30 May 2020 16:36:23
Eccentricity: 0.0020102
inclination: 74.0503°
perigee height: 752 km
apogee height: 781 km
right ascension of ascending node: 33.6455°
argument of perigee: 14.6341°
revolutions per day: 14.37468031
mean anomaly at epoch: 43.5838°
orbit number at epoch: 67345

The dashed part of the orbit path shows where the satellite is in the earth's shadow,  

DLR